AirNav   Air Wisconsin Up To $57,000 Bonus
 
 1076 users online  

3L2 Sky Ranch Airport
Sandy Valley, Nevada, USA

GOING TO SANDY VALLEY?


FAA INFORMATION EFFECTIVE 03 NOVEMBER 2022

Location

FAA Identifier: 3L2
Lat/Long: 35-47-34.6000N 115-37-35.1000W
35-47.576667N 115-37.585000W
35.7929444,-115.6264167
(estimated)
Elevation: 2599 ft. / 792.2 m (surveyed)
Variation: 14E (1985)
From city: 2 miles SW of SANDY VALLEY, NV
Time zone: UTC -8 (UTC -7 during Daylight Saving Time)
Zip code: 89019

Airport Operations

Airport use: Open to the public
Activation date: 06/1979
Control tower: no
ARTCC: LOS ANGELES CENTER
FSS: RENO FLIGHT SERVICE STATION
NOTAMs facility: RNO (NOTAM-D service available)
Attendance: IREG
Wind indicator: yes
Segmented circle: yes

Airport Communications

CTAF/UNICOM: 123.0

Nearby radio navigation aids

VOR radial/distance  VOR name  Freq  Var
LASr218/28.5LAS VEGAS VORTAC116.9015E
BLDr237/39.0BOULDER CITY VORTAC116.7015E

Airport Services

Parking: hangars and tiedowns

Runway Information

Runway 3/21

Dimensions: 3340 x 45 ft. / 1018 x 14 m
Surface: asphalt, in good condition
Runway edge lights: non-standard
RWY 03/21 RTHL ONLY. RWY EDGES MARKED WITH REFLECTORS.
RUNWAY 3  RUNWAY 21
Traffic pattern: rightleft
Displaced threshold: no180 ft.
DSPLCD THLD MARKED WITH 8 FT WHITE LINE.
Markings: basic, in good conditionbasic, in good condition
Obstructions: none17 ft. road, 200 ft. from runway
+16 FT ROAD, 0-200 FT FROM RWY END, 125 FT R TO OB. +4 FT FENCE, 0-200 FT FROM RWY END, 108 FT R TO OB.

Runway 12/30

Dimensions: 3300 x 105 ft. / 1006 x 32 m
Surface: dirt, in fair condition
Operational restrictions: RY 12/30 THLD NOT MARKED.
RUNWAY 12  RUNWAY 30
Latitude: 35-47.765960N35-47.388083N
Longitude: 115-37.825518W115-37.345095W
Elevation: 2575.0 ft.2575.0 ft.
Traffic pattern: rightleft
Runway heading: 120 magnetic, 134 true300 magnetic, 314 true
Markings: nonenone

Airport Ownership and Management from official FAA records

Ownership: Privately-owned
Owner: SKY RANCH HOMEOWNERS ASSN
838 SARATOGA AVENUE
SANDY VALLEY, NV 89019-8623
Phone 702-420-3559
Manager: STEVE VAN FRANK
838 SARATOGA AVENUE
SANDY VALLEY, NV 89019-8623
Phone 702-420-3559

Airport Operational Statistics

Aircraft based on the field: 92
Single engine airplanes: 80
Multi engine airplanes: 5
Helicopters: 2
Ultralights: 5
    
Aircraft operations: avg 95/week *
81% local general aviation
15% transient general aviation
4% military
1% air taxi
* for 12-month period ending 26 July 2022

Additional Remarks

AVOID NOISE SENSITIVE RESIDENTIAL AREA 1.5 MILES NE OF ARPT.
LOW FLYING MILITARY AIRCRAFT IN AREA.
UNMARKED & UNLIGHTED POWER POLES/LINES NW/SE OF RWY 03/21.
ARPT IS A RESIDENTIAL AIRPARK; AUTO TRAFFIC IS ON & ACROSS RWYS & TWYS.
OCNL WILD HORSES ON AND INVOF ACFT MOV AREAS.
RY 03/21 OBSTACLE FREE AREA LIMITED TO 96 FT EITHER SIDE OF RY CNTRLN.
NO LINE OF SIGHT BTWN RY ENDS.
ULTRALIGHT ACTIVITY ON AND IN VICINTY OF AIRPORT.
FOR CD CTC LAS VEGAS APCH AT 725-200-4432.

Instrument Procedures

There are no published instrument procedures at 3L2.

Some nearby airports with instrument procedures:

KHND - Henderson Executive Airport (26 nm NE)
KLAS - Harry Reid International Airport (29 nm NE)
KVGT - North Las Vegas Airport (33 nm NE)
KBVU - Boulder City Municipal Airport (38 nm E)
KLSV - Nellis Air Force Base (39 nm NE)
 
Loc | Ops | Rwys | IFR | FBO | Links
Com | Nav | Svcs | Stats | Notes
Area around 3L2 (Sky Ranch Airport)
 
Road maps at: MapQuest Bing Google
 
Aerial photo
WARNING: Photo may not be current or correct
Aerial photo of 3L2 (Sky Ranch Airport)
Photo by Greg Tarasoff

Do you have a better or more recent aerial photo of Sky Ranch Airport that you would like to share? If so, please send us your photo.

 
Sectional chart

 
Airport distance calculator
Flying to Sky Ranch Airport? Find the distance to fly.

From to 3L2

Sunrise and sunset
Times for 26-Nov-2022
 Local
(UTC-8)
 Zulu
(UTC)
Morning civil twilight06:0314:03
Sunrise06:3114:31
Sunset16:2900:29
Evening civil twilight16:5700:57

Current date and time
Zulu (UTC)  26-Nov-2022 19:15:57
Local (UTC-8)  26-Nov-2022 11:15:57
 
METAR
KHND 
27nm NE 
261856Z VRB03KT 10SM CLR 13/M12 A3013 RMK AO2 SLP223 T01281122
KLAS 
29nm NE 
261856Z 07004KT 10SM FEW200 BKN250 13/M11 A3012 RMK AO2 SLP198 T01281106
KVGT 
32nm NE 
261853Z 00000KT 10SM CLR 13/M10 A3012 RMK AO2 SLP216 T01331100
KBVU 
38nm E 
261855Z AUTO 00000KT 10SM CLR 12/M10 A3012 RMK AO2
KLSV 
39nm NE 
261855Z AUTO 00000KT 10SM CLR 14/M08 A3011 RMK AO2 SLP197 T01431084 $
KINS 
47nm N 
261855Z AUTO 00000KT 10SM BKN130 BKN210 11/M12 A3012 RMK AO2 SLP193 T01071120 $
TAF
KHND 
27nm NE 
261720Z 2618/2718 02006KT P6SM FEW250 FM270200 VRB06KT P6SM FEW150 FEW250 FM271700 02008KT P6SM SKC
KLAS 
29nm NE 
261720Z 2618/2724 05005KT P6SM SCT200 FM270200 24006KT P6SM FEW150 FEW250 FM270700 35008KT P6SM SKC FM271200 VRB06KT P6SM SKC FM271900 12005KT P6SM SKC
KVGT 
32nm NE 
261720Z 2618/2718 08005KT P6SM SCT200 FM270200 31006KT P6SM FEW150 FEW250 FM270600 33010KT P6SM SKC FM271700 12006KT P6SM SKC
NOTAMs
Click for the latest NOTAMs
NOTAMs are issued by the DoD/FAA and will open in a separate window not controlled by AirNav.

 

 
 

Would you like to see your business listed on this page?

 If your business provides an interesting product or service to pilots, flight crews, aircraft, or users of the Sky Ranch Airport, you should consider listing it here.  To start the listing process, click on the button below
 
Add a business
 

Other Pages about Sky Ranch Airport

Update a link
 
Copyright © AirNav, LLC. All rights reserved. Privacy Policy  Contact